Location: Pic du Midi - T1M
(42.9366°N, 0.1426°E)
Time: 13:46:43
(UTC+01:00)

DX 1 - Pass Details

Date: 22 September 2021
Orbit: 618 x 630 km, 98.4° (Epoch: 19 October)

Event Time Altitude Azimuth Distance (km) Brightness Sun altitude
Rises 21:42:38 0° 3° (N) 2,897 ? -29.8°
Reaches altitude 10° 21:44:59 10° 354° (N) 1,987 ? -30.1°
Maximum altitude 21:48:48 32° 292° (WNW) 1,074 ? -30.7°
Enters shadow 21:49:44 29° 267° (W) 1,148 ? -30.9°
